sat.trackr.live / text

‹ back to catalog

STARLINK-5527

NORAD 56497 · 2023-064BB

PAYLOAD ACTIVE UNKNOWN

§ Identity

Operator
Country
US
Launch date
2023-05-10
Launch site
AFWTR
Launch vehicle
Mass (kg)
RCS (m²)

Purposes: comms

External: N2YO · Heavens-Above · Gunter

§ Orbital elements

Epoch: 2026-05-25T01:11:46.981248Z

Period
96.11 min
Inclination
69.9990°
Eccentricity
0.0003620
Mean motion
14.98333186 rev/d
Perigee alt
569.5 km
Apogee alt
574.6 km
Semi-major
6,950.2 km
B*
4.3071e-5
RAAN
271.7950°
Arg perigee
266.0061°
Mean anomaly
94.0684°
Rev number
16,767

§ Raw data

STARLINK-55271 56497U 23064BB  26145.04984932  .00000421  00000+0  43071-4 0  99982 56497  69.9990 271.7950 0003620 266.0061  94.0684 14.98333186167672

JSON: /api/v1/satellites/56497 · /tle

For live sub-satellite position, see the globe view (requires WebGL).

§ Visibility from observer

Set your observer location to see the next 7 days of passes ≥ 10°. The values pass through the URL so the page stays shareable.

No JS? Fill the form by hand. The geolocation button needs JavaScript.